Weather History for Raton, NM

Change the Weather History Date:

Tuesday, February 12, 2013

  Actual Average (KTAD) Record (KTAD)
Temperature  
Mean Temperature 26 °F 34 °F  
Max Temperature 39 °F 49 °F 75 °F (1954)
Min Temperature 14 °F 19 °F -10 °F (1963)
Degree Days  
Heating Degree Days 38 31  
Month to date heating degree days 379  
Since 1 July heating degree days 3661  
Cooling Degree Days 0 0  
Month to date cooling degree days 0  
Year to date cooling degree days 0  
Moisture  
Dew Point 9 °F    
Average Humidity 55    
Maximum Humidity 96    
Minimum Humidity 15    
Precipitation  
Precipitation 0.01 in 0.02 in 0.13 in (1950)
Month to date precipitation 0.19  
Year to date precipitation 0.59  
Sea Level Pressure  
Sea Level Pressure 30.01 in    
Wind  
Wind Speed 6 mph (North)    
Max Wind Speed 16 mph    
Max Gust Speed 23 mph    
Visibility 10 miles    
Events Snow    
T = Trace of Precipitation, MM = Missing Value Source: NWS Daily Summary

Daily Weather History Graph

Daily Weather History Graph

Search for Another Location

Airport:

Trip Planner

Search our weather history database for the weather conditions in past years. The results will help you decide how hot, cold, wet, or windy it might be!

Date:

Astronomy

Feb. 12, 2013 Rise Set
Actual Time 6:49 AM MST 5:35 PM MST
Civil Twilight 6:22 AM MST 6:02 PM MST
Nautical Twilight 5:52 AM MST 6:32 PM MST
Astronomical Twilight 5:22 AM MST 7:02 PM MST
Moon 7:53 AM MST (2/12) 8:32 PM MST (2/12)
Length of Visible Light 11h 39m
Length of Day
10h 46m
Waxing Crescent, 8% of the Moon is Illuminated
Feb 12
Waxing Crescent
Feb 17
First Quarter
Feb 25
Full
Mar 4
Last Quarter
Mar 11
New

Hourly Weather History & Observations

Time (MST) Temp. Windchill Dew Point Humidity Pressure Visibility Wind Dir Wind Speed Gust Speed Precip Events Conditions
12:46 AM 26.6 °F - 24.8 °F 93% 29.95 in 2.5 mi Calm Calm - 0.00 in Snow Light Snow
12:53 AM 26.1 °F - 24.1 °F 92% 29.99 in 3.0 mi Calm Calm - 0.00 in Snow Light Snow
1:45 AM 24.8 °F 19.1 °F 21.2 °F 86% 29.94 in 10.0 mi ENE 4.6 mph - 0.00 in   Mostly Cloudy
1:53 AM 24.1 °F - 23.0 °F 96% 29.97 in 10.0 mi Calm Calm - 0.00 in   Overcast
2:23 AM 24.8 °F 20.5 °F 21.2 °F 86% 29.93 in 10.0 mi NE 3.5 mph - N/A   Overcast
2:53 AM 24.1 °F 19.7 °F 21.0 °F 88% 29.97 in 10.0 mi NNE 3.5 mph - N/A   Overcast
3:53 AM 19.0 °F 10.0 °F 16.0 °F 88% 29.99 in 10.0 mi NNW 6.9 mph - N/A   Scattered Clouds
4:53 AM 21.0 °F 11.4 °F 16.0 °F 81% 29.99 in 10.0 mi North 8.1 mph - N/A   Clear
5:53 AM 18.0 °F 7.7 °F 12.9 °F 81% 30.02 in 10.0 mi North 8.1 mph - N/A   Clear
6:53 AM 19.0 °F 7.5 °F 12.0 °F 74% 30.02 in 10.0 mi North 10.4 mph - N/A   Clear
7:53 AM 25.0 °F 14.2 °F 12.0 °F 58% 30.01 in 10.0 mi North 11.5 mph 20.7 mph N/A   Clear
8:53 AM 30.0 °F 20.0 °F 12.9 °F 49% 30.02 in 10.0 mi North 12.7 mph - N/A   Clear
9:53 AM 33.1 °F 23.0 °F 9.0 °F 37% 30.02 in 10.0 mi NNE 15.0 mph - N/A   Clear
10:53 AM 36.0 °F 26.3 °F 3.0 °F 25% 30.00 in 10.0 mi NNE 16.1 mph 23.0 mph N/A   Clear
11:53 AM 37.0 °F 28.5 °F -0.0 °F 21% 29.99 in 10.0 mi North 13.8 mph 23.0 mph N/A   Clear
12:53 PM 37.9 °F 29.2 °F -0.0 °F 20% 29.97 in 10.0 mi North 15.0 mph 20.7 mph N/A   Clear
1:53 PM 39.0 °F 32.8 °F -0.0 °F 19% 29.95 in 10.0 mi North 9.2 mph - N/A   Clear
2:53 PM 39.0 °F 34.8 °F -5.1 °F 15% 29.95 in 10.0 mi Variable 5.8 mph - N/A   Clear
3:53 PM 39.0 °F 32.3 °F -5.1 °F 15% 29.99 in 10.0 mi NNW 10.4 mph - N/A   Clear
4:53 PM 36.0 °F 28.5 °F -7.1 °F 16% 29.99 in 10.0 mi NNE 10.4 mph - N/A   Clear
5:27 PM 30.2 °F 21.3 °F 6.8 °F 37% 29.98 in 10.0 mi South 10.4 mph - N/A   Clear
5:53 PM 28.0 °F 20.0 °F 7.0 °F 41% 30.08 in 10.0 mi SSW 8.1 mph - N/A   Clear
6:53 PM 24.1 °F 13.7 °F 5.0 °F 44% 30.11 in 10.0 mi West 10.4 mph - N/A   Clear
7:53 PM 23.0 °F 14.7 °F 6.1 °F 48% 30.10 in 10.0 mi West 6.9 mph - N/A   Clear
8:53 PM 19.9 °F 14.9 °F 3.9 °F 50% 30.10 in 10.0 mi ENE 3.5 mph - N/A   Clear
9:53 PM 17.1 °F 7.6 °F 3.0 °F 54% 30.11 in 10.0 mi ENE 6.9 mph - N/A   Clear
10:53 PM 14.0 °F 5.1 °F 3.0 °F 62% 30.09 in 10.0 mi North 5.8 mph - 0.01 in   Clear
11:53 PM 14.0 °F 5.1 °F 1.9 °F 59% 30.08 in 10.0 mi North 5.8 mph - N/A   Clear